Temp
17 16 16 16 16 16 15 16 16 16 15 16 15 16 15 15 15 15 16 16 15 15 15 16 16 16 17 16 17 17 17 18 17 17 16 16 16 15 16 16 16 15 15
17 17 16 16 16 16 16 16 15 15 15 15 15 15 15 15 15 15 15 14 14 15 15 15 15 15 16 16 17 17 17 17 17 16 16 16 16 16 16 16 15 15 16
16 17 16 15 15 15 15 15 15 15 15 15 14 14 15 14 14 14 14 14 14 15 15 15 15 15 15 15 15 16 16 16 16 16 16 16 16 16 16 16 16 15 16
17 17 16 16 15 15 15 15 15 15 15 14 14 14 14 14 14 14 14 13 13 14 14 13 14 14 14 14 14 14 15 15 15 15 15 16 15 15 14 15 14 14 14
18 17 16 16 16 15 15 15 15 15 14 14 14 14 14 14 14 14 13 13 13 13 13 13 13 13 13 13 13 14 14 15 15 15 14 14 14 14 13 13 13 13 12
17 18 17 16 16 15 15 15 15 14 14 14 14 13 13 13 13 13 13 12 12 12 12 12 12 13 13 13 13 13 14 14 14 14 14 14 12 13 12 13 13 13 13
17 17 17 16 16 16 15 15 14 14 14 13 13 13 13 13 12 12 12 12 12 12 12 12 12 11 12 12 13 13 12 13 14 15 14 13 12 12 13 13 12 12 12
17 17 17 16 16 16 15 14 14 14 13 14 13 13 13 13 12 12 12 11 10 11 10 11 11 11 11 12 12 12 13 13 13 12 12 13 12 12 12 12 12 11 11
16 16 16 16 15 15 14 14 13 13 13 12 14 13 13 12 12 12 11 11 11 10 11 11 11 11 10 10 11 11 12 12 12 12 12 11 11 11 11 10 10 10 9
15 15 15 15 16 16 15 13 12 12 11 11 13 13 13 12 11 11 11 11 10 10 10 10 10 10 10 10 10 10 10 10 10 10 10 10 9 9 9 9 9 9 7
15 15 15 15 15 15 15 13 13 12 11 11 11 11 11 10 10 9 9 9 9 10 10 9 9 9 9 9 9 9 9 8 8 8 8 7 6 6 5 6 7 7 7
14 14 14 14 13 13 13 12 12 11 10 10 10 9 9 8 8 9 9 8 8 8 8 8 8 8 8 8 8 7 7 6 7 6 6 6 6 6 5 5 5 5 5
12 13 13 12 12 12 12 11 10 9 9 8 7 8 8 8 7 7 7 7 7 7 7 7 7 7 7 6 5 5 5 6 6 6 6 5 5 5 5 4 4 4 4
11 10 10 10 10 10 10 9 8 8 7 7 7 7 7 7 7 6 7 6 6 6 5 5 5 5 4 4 4 4 4 4 4 5 5 4 4 4 4 4 4 4 4
9 9 9 9 9 8 7 7 6 6 6 7 7 7 7 7 7 7 7 6 5 5 4 4 4 4 4 4 4 4 3 3 3 3 3 3 3 3 3 3 3 3 4
9 8 8 7 7 7 7 6 6 6 6 6 6 6 7 7 7 6 5 5 4 4 5 4 4 4 4 4 4 4 3 3 3 3 3 3 3 3 3 3 3 3 3
7 6 6 6 7 6 6 6 6 5 5 5 5 6 6 6 5 5 5 5 5 5 4 4 3 3 3 3 3 3 3 3 3 2 2 2 2 2 2 3 3 3 3
8 8 8 8 7 7 7 7 6 5 5 5 5 5 5 5 4 4 5 5 5 5 5 4 4 3 3 3 3 2 2 2 2 2 2 2 2 2 2 2 2 2 2
9 9 9 9 9 9 9 9 8 7 6 6 5 5 5 5 4 4 5 5 5 5 5 4 3 3 3 2 2 2 1 2 1 1 2 1 1 1 2 2 2 2 2
10 10 10 9 9 10 10 9 9 8 8 7 5 5 5 5 5 5 5 5 5 5 4 4 4 3 2 2 1 1 2 2 2 1 1 1 1 1 1 1 1 2 2
10 9 9 10 10 9 9 9 8 8 8 7 6 6 5 5 6 5 5 4 4 4 3 3 3 3 3 2 1 1 2 2 1 1 0 0 0 0 1 1 1 1 1
11 11 10 10 9 8 8 8 7 7 7 7 6 6 5 6 6 5 4 4 3 3 2 2 2 3 3 2 1 1 1 2 1 -0 -1 -1 -0 0 0 -0 0 1 1
11 11 10 9 9 8 8 7 8 7 7 7 7 6 6 5 5 4 4 3 3 3 2 2 2 2 2 2 1 1 1 1 0 -1 -1 -1 -1 -0 -1 -0 0 1 1
10 11 10 9 8 8 8 8 7 7 7 7 7 6 6 5 5 4 3 3 3 3 2 2 2 2 1 1 1 1 0 0 -0 -1 -1 -1 -2 -1 -1 -1 -0 0 -0
11 11 10 10 9 9 8 8 8 8 7 7 7 6 6 5 4 4 3 3 3 3 3 2 2 1 0 -0 -0 0 -0 -1 -1 -1 -1 -1 -1 -2 -1 -1 -1 -1 -0
10 10 10 10 10 10 9 9 8 8 7 7 7 6 5 5 5 4 3 3 3 3 2 2 1 1 0 0 0 0 -0 -0 -0 -1 -1 -1 -2 -2 -2 -2 -1 -1 -0
Height
1503 1504 1503 1503 1501 1500 1498 1498 1499 1499 1498 1497 1498 1499 1500 1503 1507 1511 1513 1518 1522 1527 1530 1533 1536 1538 1539 1541 1541 1543 1545 1546 1547 1548 1548 1549 1551 1552 1551 1552 1554 1555 1556
1503 1505 1505 1504 1503 1503 1502 1502 1502 1502 1502 1502 1501 1502 1505 1507 1509 1511 1514 1519 1523 1526 1529 1532 1535 1536 1537 1539 1541 1542 1543 1544 1544 1545 1546 1548 1549 1549 1550 1551 1552 1554 1555
1503 1505 1506 1504 1505 1505 1504 1505 1504 1504 1503 1504 1505 1506 1506 1508 1510 1513 1516 1519 1522 1525 1527 1530 1533 1533 1535 1536 1539 1540 1541 1543 1543 1543 1545 1545 1547 1548 1549 1549 1551 1552 1553
1505 1505 1505 1505 1505 1506 1505 1505 1506 1505 1506 1506 1507 1507 1509 1511 1513 1515 1516 1517 1520 1522 1524 1527 1531 1533 1534 1535 1538 1538 1539 1541 1541 1542 1542 1543 1544 1546 1547 1548 1550 1551 1552
1503 1503 1504 1505 1506 1507 1506 1506 1506 1507 1508 1509 1510 1511 1513 1514 1515 1516 1518 1519 1521 1523 1525 1528 1530 1531 1532 1535 1535 1537 1538 1538 1538 1540 1541 1543 1543 1544 1547 1548 1550 1549 1551
1502 1503 1504 1505 1506 1508 1508 1509 1509 1509 1510 1511 1513 1514 1515 1516 1518 1519 1520 1520 1521 1523 1525 1527 1528 1530 1532 1534 1535 1537 1537 1537 1538 1538 1540 1541 1542 1543 1544 1546 1547 1548 1549
1500 1503 1502 1505 1507 1508 1510 1511 1512 1512 1512 1513 1513 1515 1517 1518 1520 1521 1522 1522 1524 1525 1526 1527 1528 1529 1531 1533 1533 1535 1537 1536 1536 1536 1536 1537 1539 1540 1542 1543 1545 1546 1545
1498 1501 1502 1503 1508 1509 1510 1511 1511 1513 1514 1514 1515 1516 1517 1519 1521 1522 1524 1524 1524 1524 1525 1527 1529 1531 1532 1532 1534 1536 1536 1536 1536 1537 1537 1539 1540 1541 1542 1542 1542 1543 1545
1496 1499 1501 1503 1505 1506 1509 1510 1512 1513 1515 1515 1517 1517 1517 1519 1521 1523 1523 1524 1525 1526 1527 1529 1531 1532 1533 1533 1534 1535 1535 1536 1536 1537 1539 1540 1541 1540 1541 1542 1541 1540 1540
1491 1494 1496 1499 1502 1505 1507 1509 1511 1513 1514 1515 1516 1517 1518 1519 1521 1522 1524 1526 1525 1527 1528 1528 1530 1532 1533 1534 1534 1534 1534 1535 1537 1538 1538 1539 1539 1538 1538 1538 1540 1539 1537
1488 1490 1493 1497 1501 1504 1506 1508 1511 1513 1513 1515 1516 1518 1518 1520 1521 1524 1525 1525 1525 1526 1528 1528 1530 1531 1534 1534 1535 1534 1536 1536 1536 1538 1536 1535 1537 1537 1536 1536 1536 1536 1533
1487 1489 1493 1496 1501 1503 1506 1509 1511 1512 1513 1515 1516 1517 1518 1520 1521 1523 1524 1524 1525 1527 1528 1529 1530 1532 1533 1534 1533 1533 1533 1532 1534 1536 1535 1535 1536 1538 1538 1535 1534 1533 1531
1490 1490 1493 1495 1499 1503 1505 1507 1510 1513 1514 1515 1518 1519 1520 1521 1522 1523 1525 1525 1525 1526 1528 1528 1530 1531 1530 1531 1532 1532 1533 1534 1534 1533 1533 1533 1534 1534 1535 1534 1533 1531 1530
1493 1494 1495 1498 1502 1505 1508 1511 1514 1516 1518 1518 1519 1521 1523 1524 1525 1526 1527 1527 1527 1527 1527 1530 1531 1532 1531 1532 1533 1533 1532 1532 1532 1533 1532 1532 1532 1533 1533 1532 1530 1529 1530
1499 1501 1502 1504 1507 1509 1511 1515 1518 1520 1522 1522 1523 1524 1525 1526 1526 1528 1528 1528 1529 1530 1531 1531 1533 1535 1534 1535 1534 1534 1532 1532 1532 1533 1532 1532 1532 1532 1531 1529 1529 1528 1528
1504 1506 1508 1510 1513 1515 1517 1519 1522 1524 1525 1526 1527 1527 1527 1528 1528 1528 1530 1531 1532 1533 1534 1536 1536 1536 1536 1536 1536 1535 1534 1534 1533 1533 1533 1532 1531 1530 1529 1528 1528 1527 1527
1512 1514 1516 1518 1519 1521 1523 1525 1526 1529 1530 1531 1530 1529 1529 1530 1531 1532 1533 1534 1535 1536 1537 1537 1537 1537 1537 1537 1537 1537 1535 1534 1534 1533 1532 1532 1530 1529 1528 1527 1527 1526 1525
1517 1518 1520 1522 1523 1526 1527 1529 1530 1532 1533 1534 1534 1533 1533 1533 1534 1535 1536 1536 1536 1538 1538 1539 1539 1539 1539 1538 1537 1536 1535 1534 1533 1532 1531 1530 1529 1528 1527 1527 1526 1525 1524
1521 1524 1525 1527 1529 1531 1533 1535 1536 1536 1535 1535 1536 1536 1537 1537 1537 1538 1538 1538 1539 1540 1540 1539 1538 1539 1538 1537 1536 1535 1534 1533 1532 1531 1531 1530 1529 1528 1527 1526 1525 1524 1523
1526 1527 1528 1530 1531 1533 1534 1536 1536 1537 1537 1535 1536 1537 1538 1538 1538 1538 1539 1540 1540 1540 1540 1540 1539 1537 1537 1536 1536 1535 1534 1533 1532 1531 1530 1529 1528 1527 1526 1525 1524 1523 1522
1528 1528 1530 1531 1533 1534 1535 1536 1536 1537 1538 1537 1537 1538 1538 1538 1541 1540 1540 1540 1539 1538 1538 1537 1538 1537 1537 1535 1534 1534 1534 1533 1531 1529 1529 1528 1527 1526 1525 1523 1522 1521 1520
1529 1529 1529 1531 1532 1533 1534 1535 1536 1536 1537 1538 1536 1537 1538 1538 1540 1539 1539 1539 1538 1537 1536 1536 1536 1536 1535 1533 1533 1533 1532 1532 1529 1527 1527 1526 1525 1524 1523 1521 1521 1520 1519
1529 1529 1529 1529 1531 1532 1533 1533 1534 1535 1536 1537 1537 1537 1538 1539 1539 1539 1539 1538 1537 1537 1536 1535 1535 1535 1534 1533 1532 1532 1530 1529 1526 1525 1524 1523 1523 1523 1521 1520 1519 1518 1517
1528 1529 1529 1527 1529 1531 1531 1532 1533 1534 1535 1536 1537 1537 1538 1538 1538 1536 1537 1536 1536 1536 1535 1535 1534 1533 1531 1531 1530 1529 1526 1526 1525 1523 1522 1520 1520 1520 1519 1519 1518 1516 1516
1528 1527 1528 1527 1528 1529 1529 1531 1532 1533 1534 1535 1536 1536 1536 1536 1536 1536 1535 1535 1535 1535 1534 1534 1532 1531 1530 1529 1527 1526 1525 1523 1522 1520 1519 1518 1517 1518 1518 1517 1516 1515 1515
1527 1526 1527 1527 1527 1527 1528 1529 1530 1531 1532 1533 1533 1534 1534 1534 1534 1534 1533 1533 1533 1534 1532 1532 1532 1530 1529 1527 1526 1524 1522 1521 1519 1518 1517 1516 1516 1517 1517 1516 1515 1514 1513
Wind_Speed
4 3 7 7 7 10 11 13 12 8 7 7 5 6 9 13 14 14 13 15 16 16 16 16 16 14 13 6 8 8 12 10 8 11 13 11 11 11 11 14 12 11 10
2 3 5 2 7 8 6 8 7 8 8 7 8 9 9 13 14 15 15 16 18 17 17 15 14 13 11 9 7 5 7 7 9 10 8 6 12 14 13 10 12 12 11
1 2 0 5 3 5 3 2 4 3 3 4 7 8 8 8 11 12 16 20 20 20 19 15 12 10 7 5 5 6 9 8 6 8 11 10 10 14 14 12 11 11 13
3 2 2 1 2 1 3 0 3 3 4 6 10 10 10 8 8 8 11 13 14 15 15 14 14 7 2 6 3 1 5 7 7 5 9 10 5 8 11 11 12 8 10
2 3 2 2 2 2 1 2 4 4 4 8 7 8 8 7 8 6 6 7 10 12 14 12 11 9 6 5 9 8 7 8 9 10 12 12 11 10 10 10 6 10 10
7 5 6 5 3 5 3 4 7 7 7 8 6 6 7 4 4 4 4 6 6 8 9 8 7 8 12 8 8 8 9 9 10 10 12 10 11 13 12 11 9 11 10
9 8 11 7 5 6 7 7 9 10 10 11 11 9 7 7 7 5 5 4 5 3 2 3 5 5 4 9 14 12 10 9 8 8 13 14 14 13 11 13 12 12 11
10 10 14 9 8 6 10 10 10 8 8 9 9 8 7 8 7 7 6 4 10 11 11 9 8 6 9 8 8 6 6 4 4 4 5 5 4 6 7 7 6 7 4
10 14 14 14 15 14 12 12 10 9 7 5 5 7 10 11 11 9 11 10 8 10 9 6 9 9 8 6 3 2 3 2 1 1 1 1 2 3 3 4 7 6 5
14 15 19 20 18 15 13 11 9 9 8 7 5 7 10 13 15 14 8 7 9 9 9 10 11 9 8 4 2 2 4 4 3 3 3 8 11 11 11 9 9 9 6
14 20 23 20 16 14 12 11 10 9 9 4 4 6 10 14 15 15 14 8 8 10 10 10 9 8 7 6 3 3 5 4 7 9 9 10 10 10 10 11 8 8 8
17 21 21 17 14 12 9 9 8 8 6 5 5 8 10 11 13 15 13 9 8 9 10 8 5 4 1 3 4 3 2 5 4 8 11 7 4 5 9 13 9 7 6
17 19 19 18 14 11 10 9 7 4 7 10 10 8 8 5 4 6 5 5 4 4 4 3 4 4 3 3 6 6 3 1 1 5 6 5 8 12 9 7 6 10 9
19 21 22 21 20 17 16 15 14 15 14 15 12 11 10 9 8 8 5 4 3 4 8 11 11 11 11 9 6 4 6 5 4 6 3 4 5 7 7 9 5 5 4
21 21 21 19 18 20 21 20 17 18 15 13 12 12 10 9 9 9 9 10 11 12 14 13 11 9 9 9 11 12 11 6 4 6 7 6 4 6 7 9 4 6 5
24 24 24 24 23 22 22 23 21 19 17 16 15 12 11 10 11 12 11 13 14 13 12 10 8 6 5 5 4 6 6 6 6 2 2 5 5 6 9 4 6 6 5
22 21 20 19 19 20 19 20 22 20 18 17 14 12 12 12 14 16 18 17 14 12 7 7 7 7 8 8 5 4 4 7 6 4 4 5 7 7 7 7 7 7 6
22 21 19 20 19 13 12 14 14 12 13 18 18 18 14 14 16 15 13 12 10 9 5 5 5 4 4 4 4 4 5 4 4 4 5 6 7 8 7 7 6 7 6
16 11 12 12 12 12 11 9 7 5 3 7 10 15 15 17 16 14 12 11 6 5 5 4 3 2 3 4 5 5 7 5 8 5 6 6 7 7 6 7 7 8 7
10 14 10 9 10 8 7 6 5 5 5 5 8 4 6 4 7 9 8 5 5 4 3 3 6 2 5 6 4 4 4 5 5 5 6 7 7 6 7 7 7 7 7
7 8 5 3 8 5 2 2 3 3 6 3 2 4 6 5 4 3 2 4 3 3 3 2 2 6 4 4 5 5 5 5 4 5 7 7 8 7 7 8 7 7 8
4 1 8 6 4 2 2 3 0 3 0 1 2 8 12 7 1 1 2 2 3 3 3 3 2 3 5 6 5 5 5 6 5 4 6 8 7 7 9 7 7 8 8
1 2 4 8 6 1 5 5 1 2 4 4 4 1 3 1 1 0 2 1 2 2 3 4 5 4 4 6 7 7 8 7 7 8 11 17 3 9 10 8 7 8 9
5 4 3 8 4 4 5 4 3 5 4 4 4 4 2 2 2 3 0 2 1 2 2 4 4 5 6 6 5 7 7 8 10 15 20 15 2 6 7 7 8 8 8
12 4 4 8 5 4 9 6 7 4 4 5 5 5 5 4 4 3 2 2 1 1 2 3 5 7 5 6 4 9 12 14 14 14 11 8 2 5 9 8 8 8 8
8 7 7 8 6 6 8 6 7 6 7 7 7 7 7 7 6 6 5 4 2 2 4 4 4 6 3 6 12 10 8 8 8 8 8 4 3 5 7 8 7 9 9
Wind_Direction
41 6 356 14 52 68 61 58 46 75 77 68 128 157 173 176 180 183 191 199 196 195 192 197 200 193 220 267 234 235 247 250 257 219 201 191 182 203 216 225 209 215 220
62 71 345 345 57 44 75 60 59 67 72 91 103 139 156 166 168 175 177 174 178 177 179 189 195 215 230 255 249 212 235 250 248 220 196 202 207 209 219 207 207 205 200
85 11 112 270 281 347 15 61 50 74 63 118 122 119 131 157 177 180 183 179 175 179 185 184 197 217 224 185 203 226 243 247 239 228 224 209 211 203 217 197 208 202 211
196 273 66 274 274 316 330 287 25 94 109 126 122 117 120 142 151 166 202 198 194 197 197 196 211 232 181 180 211 326 303 259 245 251 230 228 228 193 205 218 208 205 198
188 247 155 7 154 155 197 142 95 130 113 150 139 123 117 120 128 148 177 196 208 214 218 217 218 221 202 216 224 241 269 291 287 268 245 222 204 173 177 189 198 197 185
210 241 194 133 168 122 117 84 97 103 97 129 142 139 150 152 157 150 185 193 192 195 198 198 211 231 226 229 230 248 282 279 256 233 206 198 152 185 187 177 180 217 248
220 193 208 156 176 142 125 130 120 121 111 118 132 144 151 157 150 138 128 149 154 167 180 187 210 218 220 264 251 243 246 238 213 210 189 198 190 199 209 208 208 203 215
235 207 214 173 172 182 163 160 151 142 127 126 141 145 145 151 147 136 124 97 141 154 156 170 182 177 164 192 208 212 205 207 178 187 205 220 218 225 227 223 222 222 206
249 209 202 185 183 184 167 146 153 165 166 202 151 141 147 149 153 165 163 183 194 178 190 180 195 184 181 183 223 138 132 123 64 20 355 312 301 282 276 279 244 237 209
223 206 188 192 202 197 185 183 184 192 204 213 184 159 163 158 147 157 174 211 170 166 167 155 155 164 171 180 203 99 67 55 46 25 338 318 307 306 299 293 277 257 248
213 189 190 194 200 189 205 206 203 228 239 199 168 145 159 161 154 141 146 160 176 167 163 162 165 160 171 176 209 280 314 331 351 343 345 12 16 18 340 319 316 297 268
171 178 174 180 178 179 197 198 215 215 197 173 176 150 145 149 163 178 187 192 157 146 144 146 159 145 244 262 259 230 136 111 90 33 5 36 305 269 288 318 329 357 352
152 153 154 146 142 148 159 156 157 144 131 125 117 113 107 101 114 122 126 135 151 172 172 217 256 268 274 354 17 11 32 9 254 214 218 259 311 312 336 350 333 330 342
125 119 118 121 119 116 113 108 109 107 109 107 105 101 99 97 95 84 81 83 84 73 60 53 50 46 44 34 14 343 332 353 267 251 244 276 302 300 294 295 316 319 316
109 108 109 109 109 112 109 105 105 102 92 93 95 96 93 93 91 93 86 83 88 84 70 57 60 53 48 37 22 21 16 29 27 9 6 9 354 337 319 312 356 335 324
111 108 106 105 105 104 106 103 96 92 90 85 84 84 90 91 89 91 99 101 98 89 75 78 78 71 71 71 59 50 17 360 333 66 346 326 324 334 328 12 348 323 325
102 103 102 102 99 96 95 94 97 93 81 72 66 68 78 87 95 97 96 95 91 79 61 61 56 54 48 38 29 15 3 355 13 17 329 337 332 331 330 337 327 324 302
112 105 98 96 102 95 85 81 79 74 73 60 62 65 73 94 99 93 85 80 74 66 58 66 49 43 21 6 351 349 326 351 307 311 357 331 330 327 333 327 323 323 318
97 111 106 107 113 108 104 104 98 84 114 66 82 72 69 77 82 81 74 67 69 57 51 17 41 27 347 320 334 343 352 325 11 37 339 330 328 327 325 321 314 315 330
117 117 109 111 116 110 112 95 80 86 71 65 87 113 51 48 66 59 67 67 54 45 33 27 6 13 1 354 7 348 0 347 348 338 334 337 330 332 326 325 321 320 318
129 152 134 170 131 108 69 61 94 80 51 74 255 287 243 76 103 80 38 26 22 31 4 23 35 346 22 3 350 13 347 335 319 335 336 334 330 332 331 324 321 324 322
132 179 166 156 192 116 147 182 197 323 273 119 351 73 144 91 96 74 19 17 14 19 343 27 11 338 339 319 351 337 343 337 314 321 339 327 327 337 316 325 342 332 326
206 135 211 201 223 179 170 263 334 158 183 155 173 139 74 133 296 347 34 344 1 2 350 12 13 343 322 308 313 317 304 317 291 305 325 333 341 333 327 334 335 334 323
267 237 271 218 159 181 218 237 182 230 137 175 194 206 229 258 268 269 356 306 1 356 5 345 328 315 306 305 307 299 265 280 275 297 315 316 291 314 325 358 332 320 325
321 228 252 226 247 212 210 219 199 193 215 228 231 235 247 249 250 253 251 265 262 336 316 332 295 320 325 331 289 285 292 294 298 304 312 313 308 37 354 318 316 338 333
297 281 248 251 250 237 210 221 211 225 232 234 238 242 248 251 250 238 255 241 208 272 236 273 339 352 346 329 341 326 327 324 325 324 325 323 86 5 328 332 341 331 334